星链-30601 (STARLINK-30601 )

导读

STARLINK-30601是美国SpaceX公司星链(Starlink)星座中的一颗卫星,于2023年10月21日发射入轨。星链项目旨在构建全球低轨卫星互联网,为基础设施匮乏地区提供高速低延迟宽带服务。该卫星属于星链星座组网的组成部分,单星重约数百千克,配备太阳能供电与相控阵天线,遵循星座设计完成轨道部署,支撑全球连续覆盖的网络服务,退役后可快速离轨减少太空垃圾。

基本信息
目录编号:
58117
目录名称:
STARLINK-30601
国际标识:
2023-161W
轨道中心:
EARTH
卫星名称:
星链-30601
卫星全名:
星链-30601 (STARLINK-30601 )
卫星状态:
在轨 (已飞行971 天)
发射日期:
2023-10-21 UTC
国别 :
美国 (US)
星等 :
--
轨道信息
数据来源 国际轨道数据 AOE轨道数据
星历时间 2026-06-18T04:28:02+0800
14小时前
查看轨道信息
2026-06-15T00:00:00+0800
3天前
查看轨道信息
半长轴 6853.391km 6853.347km
偏心率 0.0001328 0.0002119
轨道倾角 53.161° 53.159°
近地点辐角 111.151° 147.584°
升交点赤经 60.529° 75.328°
平近点角 248.963° 291.370°
近地点 474.343km 473.757km
远地点 476.165km 476.663km
周期 94.106分钟 94.105分钟
每日圈数 15.30187 15.302018
详细信息
固有亮度:
5
最大亮度:
0.3
卫星平台:
Starlink v2.0 mini
覆盖范围:
全球
运营商:
太空探索技术公司
运营商所在国:
美国
制造商(研发单位):
太空探索技术公司
制造商所在国:
美国
使用方式:
暂无
卫星简介
星链(Starlink)计划是由太空探索技术公司(SpaceX)提出的一个巨型低轨卫星互联网星座项目,计划在2019年至2024年间在太空搭建由约1.2万颗卫星组成的“星链”网络,其中1584颗将部署在地球上空550千米处的近地轨道,并从2020年开始工作。该卫星仍在工作。
2D轨道图
3D轨道图
轨道高度分析图
轨道倾角分析图
轨道综合分析图
查看轨道综合分析图